RYR42BT EGGP-EIDW

Flight info

Callsign RYR42BT
Flight time N/A
Altitude 22000
Route WAL L10 PENIL L28 LELDO M145 BAGSO BAGSO4L
Aircraft B738/M-SDE2E3FGHIRWXY/LB1

Departure

Time 2026-05-06 23:15
Airport Liverpool John Lennon Airport (EGGP)

Arrival

Time N/A
Airport Dublin Airport (EIDW)
Time Latitude Longitude Altitude Speed Heading
2026-05-06 23:15 53.38485 -2.86407 5898 ft 236 kts 267°
2026-05-06 23:15 53.38550 -2.88898 6351 ft 255 kts 268°
2026-05-06 23:15 53.38614 -2.91307 6761 ft 272 kts 268°
2026-05-06 23:16 53.38699 -2.94559 7269 ft 292 kts 268°
2026-05-06 23:16 53.38779 -2.97693 7726 ft 308 kts 268°
2026-05-06 23:16 53.38855 -3.00832 8153 ft 305 kts 268°
2026-05-06 23:16 53.38947 -3.04083 8609 ft 308 kts 268°
2026-05-06 23:17 53.39034 -3.07217 9049 ft 308 kts 269°
2026-05-06 23:17 53.39121 -3.10318 9481 ft 310 kts 270°
2026-05-06 23:17 53.39490 -3.13600 9934 ft 314 kts 285°
2026-05-06 23:17 53.39688 -3.14426 10053 ft 317 kts 291°
2026-05-06 23:19 53.46497 -3.30536 12697 ft 326 kts 301°
2026-05-06 23:19 53.49688 -3.38031 13905 ft 330 kts 300°
2026-05-06 23:19 53.50957 -3.41017 14382 ft 331 kts 300°
2026-05-06 23:20 53.52178 -3.43896 14840 ft 332 kts 299°
2026-05-06 23:20 53.53306 -3.46558 15261 ft 334 kts 299°
2026-05-06 23:20 53.54662 -3.49761 15765 ft 335 kts 299°
2026-05-06 23:20 53.55960 -3.52833 16246 ft 337 kts 299°
2026-05-06 23:21 53.57314 -3.56039 16746 ft 339 kts 298°
2026-05-06 23:21 53.58680 -3.59278 17247 ft 340 kts 298°
2026-05-06 23:21 53.59992 -3.62391 17727 ft 342 kts 298°
2026-05-06 23:21 53.61209 -3.65641 18209 ft 335 kts 290°
2026-05-06 23:22 53.62134 -3.68981 18684 ft 330 kts 286°
2026-05-06 23:22 53.63045 -3.72530 19186 ft 327 kts 285°
2026-05-06 23:22 53.63837 -3.75647 19631 ft 324 kts 285°
2026-05-06 23:22 53.64721 -3.79192 20140 ft 322 kts 284°
2026-05-06 23:23 53.65596 -3.82745 20652 ft 320 kts 284°
2026-05-06 23:23 53.66450 -3.86246 21161 ft 317 kts 284°
2026-05-06 23:23 53.67262 -3.89591 21649 ft 315 kts 283°
2026-05-06 23:23 53.67997 -3.92637 21989 ft 315 kts 283°
2026-05-06 23:24 53.68799 -3.95978 22023 ft 310 kts 283°
2026-05-06 23:24 53.69495 -3.98879 22018 ft 305 kts 283°
2026-05-06 23:24 53.70255 -4.02070 22020 ft 304 kts 283°
2026-05-06 23:24 53.70964 -4.05064 22020 ft 304 kts 283°
2026-05-06 23:25 53.71563 -4.08375 22019 ft 296 kts 272°
2026-05-06 23:25 53.71767 -4.11659 22025 ft 293 kts 268°
2026-05-06 23:25 53.71900 -4.14560 22022 ft 293 kts 268°
2026-05-06 23:25 53.72044 -4.17528 22020 ft 293 kts 268°
2026-05-06 23:26 53.72194 -4.20837 22020 ft 293 kts 268°
2026-05-06 23:26 53.72340 -4.24362 22020 ft 293 kts 268°
2026-05-06 23:26 53.72481 -4.27882 22020 ft 292 kts 268°
2026-05-06 23:26 53.72612 -4.31273 22020 ft 292 kts 268°
2026-05-06 23:27 53.72730 -4.34394 22020 ft 292 kts 268°
2026-05-06 23:27 53.72856 -4.37769 22020 ft 292 kts 268°
2026-05-06 23:27 53.72984 -4.41234 22020 ft 292 kts 268°
2026-05-06 23:27 53.73112 -4.44765 22020 ft 292 kts 268°
2026-05-06 23:28 53.73234 -4.48155 22020 ft 292 kts 268°
2026-05-06 23:28 53.73356 -4.51581 22020 ft 292 kts 268°
2026-05-06 23:28 53.73475 -4.54960 22020 ft 292 kts 268°
2026-05-06 23:28 53.73593 -4.58330 22020 ft 292 kts 268°
2026-05-06 23:29 53.73712 -4.61759 22020 ft 292 kts 268°
2026-05-06 23:29 53.73827 -4.65076 22020 ft 292 kts 267°
2026-05-06 23:29 53.73893 -4.67037 22020 ft 292 kts 267°
2026-05-06 23:29 53.74022 -4.71006 22020 ft 292 kts 267°
2026-05-06 23:30 53.74124 -4.74115 22020 ft 292 kts 267°
2026-05-06 23:30 53.74195 -4.76273 22020 ft 292 kts 267°
2026-05-06 23:30 53.74343 -4.80780 22020 ft 292 kts 267°
2026-05-06 23:30 53.74453 -4.84145 22020 ft 293 kts 267°
2026-05-06 23:31 53.74563 -4.87490 22020 ft 294 kts 267°
2026-05-06 23:31 53.74669 -4.90746 22020 ft 295 kts 267°
2026-05-06 23:31 53.74778 -4.94117 22020 ft 296 kts 267°
2026-05-06 23:31 53.74886 -4.97480 22020 ft 297 kts 267°
2026-05-06 23:32 53.74994 -5.00911 22020 ft 298 kts 267°
2026-05-06 23:32 53.75106 -5.04469 22020 ft 299 kts 267°
2026-05-06 23:32 53.75164 -5.06343 22020 ft 300 kts 267°